• In Germany
  • List of Countries
  • For 7 days
  • Water Temperature
  • Satellite Maps
  • Weather Map
  • Weather Widgets
  • user-avatar
    Login

    Hourly Weather Zastruzne

    Today, 22 October, Monday

    Time Temperature Precipitation Wind Pressure Humidity
    00:00 +5°C° 0 mm 2 mps 759 mmHg 86%
    01:00 +5°C° 0 mm 2 mps 758 mmHg 88%
    02:00 +4°C° 0 mm 3 mps 758 mmHg 89%
    03:00 +4°C° 0 mm 3 mps 758 mmHg 90%
    04:00 +3°C° 0 mm 3 mps 757 mmHg 91%
    05:00 +4°C° 0 mm 3 mps 757 mmHg 91%
    06:00 +4°C° 0 mm 3 mps 757 mmHg 91%
    07:00 +4°C° 0 mm 4 mps 757 mmHg 91%
    08:00 +5°C° 0 mm 4 mps 756 mmHg 84%
    09:00 +7°C° 0 mm 4 mps 756 mmHg 78%
    10:00 +9°C° 0 mm 5 mps 756 mmHg 71%
    11:00 +9°C° 0 mm 5 mps 755 mmHg 70%
    12:00 +10°C° 0 mm 5 mps 754 mmHg 68%
    13:00 +10°C° 0 mm 5 mps 754 mmHg 67%
    14:00 +9°C° 0.4 mm 5 mps 754 mmHg 73%
    15:00 +9°C° 0.4 mm 5 mps 753 mmHg 78%
    16:00 +8°C° 0.4 mm 5 mps 753 mmHg 84%
    17:00 +8°C° 0.3 mm 5 mps 753 mmHg 84%
    18:00 +8°C° 0.3 mm 5 mps 753 mmHg 84%
    19:00 +7°C° 0.3 mm 5 mps 753 mmHg 84%
    20:00 +6°C° 0 mm 4 mps 753 mmHg 85%
    21:00 +5°C° 0 mm 3 mps 753 mmHg 85%
    22:00 +4°C° 0 mm 3 mps 753 mmHg 86%
    23:00 +4°C° 0 mm 3 mps 753 mmHg 86%

    Tomorrow, 23 October, Tuesday

    Time Temperature Precipitation Wind Pressure Humidity
    00:00 +4°C° 0 mm 3 mps 753 mmHg 86%
    01:00 +3°C° 0 mm 3 mps 753 mmHg 85%
    02:00 +3°C° 0 mm 3 mps 753 mmHg 85%
    03:00 +4°C° 0 mm 3 mps 752 mmHg 85%
    04:00 +4°C° 0 mm 4 mps 752 mmHg 85%
    05:00 +4°C° 0 mm 4 mps 751 mmHg 85%
    06:00 +3°C° 0 mm 5 mps 750 mmHg 85%
    07:00 +3°C° 0 mm 5 mps 750 mmHg 84%
    08:00 +4°C° 0.1 mm 6 mps 749 mmHg 80%
    09:00 +5°C° 0.1 mm 7 mps 748 mmHg 76%
    10:00 +5°C° 0.1 mm 7 mps 746 mmHg 71%
    11:00 +5°C° 0.7 mm 8 mps 745 mmHg 74%
    12:00 +5°C° 0.7 mm 9 mps 743 mmHg 76%
    13:00 +5°C° 0.7 mm 9 mps 741 mmHg 78%
    14:00 +5°C° 1.7 mm 9 mps 739 mmHg 80%
    15:00 +5°C° 1.7 mm 10 mps 738 mmHg 82%
    16:00 +5°C° 1.7 mm 10 mps 736 mmHg 84%
    17:00 +6°C° 1.2 mm 9 mps 735 mmHg 84%
    18:00 +6°C° 1.2 mm 8 mps 734 mmHg 84%
    19:00 +8°C° 1.2 mm 7 mps 733 mmHg 84%
    20:00 +8°C° 0.4 mm 7 mps 732 mmHg 82%
    21:00 +8°C° 0.4 mm 7 mps 732 mmHg 80%
    22:00 +6°C° 0.4 mm 7 mps 732 mmHg 79%
    23:00 +6°C° 0.3 mm 7 mps 731 mmHg 78%

    Day after tomorrow, 24 October, Wednesday

    Time Temperature Precipitation Wind Pressure Humidity
    00:00 +5°C° 0.3 mm 7 mps 731 mmHg 78%
    01:00 +5°C° 0.3 mm 7 mps 731 mmHg 78%
    02:00 +5°C° 0.3 mm 8 mps 731 mmHg 76%
    03:00 +3°C° 0.3 mm 9 mps 731 mmHg 73%
    04:00 +3°C° 0.3 mm 10 mps 731 mmHg 71%
    05:00 +3°C° 0.9 mm 10 mps 731 mmHg 72%
    06:00 +3°C° 0.9 mm 10 mps 731 mmHg 73%
    07:00 +2°C° 0.9 mm 10 mps 732 mmHg 74%
    08:00 +3°C° 0.1 mm 11 mps 732 mmHg 71%
    09:00 +3°C° 0.1 mm 12 mps 733 mmHg 68%
    10:00 +4°C° 0.1 mm 12 mps 733 mmHg 64%
    11:00 +4°C° 0.1 mm 12 mps 734 mmHg 63%
    12:00 +4°C° 0.1 mm 13 mps 734 mmHg 63%
    13:00 +4°C° 0.1 mm 13 mps 735 mmHg 62%
    14:00 +4°C° 0.4 mm 13 mps 735 mmHg 64%
    15:00 +4°C° 0.4 mm 12 mps 736 mmHg 67%
    16:00 +4°C° 0.4 mm 12 mps 737 mmHg 70%
    17:00 +4°C° 0.2 mm 12 mps 738 mmHg 69%
    18:00 +4°C° 0.2 mm 11 mps 739 mmHg 68%
    19:00 +5°C° 0.2 mm 10 mps 740 mmHg 68%
    20:00 +3°C° 0 mm 10 mps 740 mmHg 69%
    21:00 +3°C° 0 mm 9 mps 741 mmHg 69%
    22:00 +3°C° 0 mm 9 mps 742 mmHg 70%
    23:00 +4°C° 0 mm 8 mps 743 mmHg 72%

    25 October, Thursday

    Time Temperature Precipitation Wind Pressure Humidity
    00:00 +4°C° 0 mm 8 mps 743 mmHg 73%
    01:00 +4°C° 0 mm 7 mps 744 mmHg 75%
    02:00 +3°C° 0 mm 6 mps 744 mmHg 76%
    03:00 +3°C° 0 mm 6 mps 745 mmHg 78%
    04:00 +3°C° 0 mm 6 mps 745 mmHg 79%
    05:00 +3°C° 0 mm 5 mps 745 mmHg 80%
    06:00 +3°C° 0 mm 5 mps 745 mmHg 80%
    07:00 +2°C° 0 mm 5 mps 745 mmHg 81%
    08:00 +5°C° 0 mm 5 mps 745 mmHg 75%
    09:00 +5°C° 0 mm 6 mps 745 mmHg 68%
    10:00 +7°C° 0 mm 6 mps 745 mmHg 61%
    11:00 +7°C° 0.1 mm 6 mps 744 mmHg 64%
    12:00 +7°C° 0.1 mm 6 mps 744 mmHg 67%
    13:00 +7°C° 0.1 mm 6 mps 743 mmHg 70%
    14:00 +7°C° 0.5 mm 6 mps 743 mmHg 77%
    15:00 +7°C° 0.5 mm 6 mps 742 mmHg 83%
    16:00 +8°C° 0.5 mm 6 mps 741 mmHg 89%
    17:00 +8°C° 0.5 mm 6 mps 741 mmHg 88%
    18:00 +8°C° 0.5 mm 6 mps 741 mmHg 88%
    19:00 +9°C° 0.5 mm 6 mps 741 mmHg 87%
    20:00 +8°C° 0.2 mm 6 mps 741 mmHg 86%
    21:00 +8°C° 0.2 mm 6 mps 741 mmHg 85%
    22:00 +8°C° 0.2 mm 5 mps 741 mmHg 83%
    23:00 +8°C° 0.1 mm 5 mps 741 mmHg 84%

    26 October, Friday

    Time Temperature Precipitation Wind Pressure Humidity
    00:00 +7°C° 0.1 mm 5 mps 741 mmHg 85%
    01:00 +7°C° 0.1 mm 5 mps 741 mmHg 85%
    02:00 +7°C° 0 mm 5 mps 741 mmHg 86%
    03:00 +6°C° 0 mm 4 mps 742 mmHg 87%
    04:00 +6°C° 0 mm 4 mps 742 mmHg 89%
    05:00 +6°C° 0 mm 4 mps 742 mmHg 90%
    06:00 +6°C° 0 mm 4 mps 742 mmHg 92%
    07:00 +7°C° 0 mm 3 mps 743 mmHg 94%
    08:00 +8°C° 0.1 mm 3 mps 743 mmHg 91%
    09:00 +8°C° 0.1 mm 4 mps 743 mmHg 88%
    10:00 +10°C° 0.1 mm 4 mps 743 mmHg 85%
    11:00 +10°C° 0.1 mm 4 mps 743 mmHg 84%
    12:00 +10°C° 0.1 mm 4 mps 743 mmHg 83%
    13:00 +10°C° 0.1 mm 5 mps 743 mmHg 82%
    14:00 +9°C° 0 mm 5 mps 742 mmHg 81%
    15:00 +10°C° 0 mm 4 mps 742 mmHg 80%
    16:00 +10°C° 0 mm 4 mps 742 mmHg 79%
    17:00 +10°C° 0 mm 4 mps 742 mmHg 80%
    18:00 +8°C° 0 mm 4 mps 742 mmHg 80%
    19:00 +8°C° 0 mm 4 mps 742 mmHg 81%
    20:00 +8°C° 0 mm 4 mps 741 mmHg 82%
    21:00 +8°C° 0 mm 5 mps 741 mmHg 82%
    22:00 +8°C° 0 mm 5 mps 741 mmHg 82%
    23:00 +8°C° 0 mm 5 mps 741 mmHg 83%

    27 October, Saturday

    Time Temperature Precipitation Wind Pressure Humidity
    00:00 +8°C° 0 mm 5 mps 741 mmHg 84%
    01:00 +8°C° 0 mm 5 mps 740 mmHg 85%
    02:00 +8°C° 0 mm 5 mps 740 mmHg 86%
    03:00 +8°C° 0 mm 5 mps 740 mmHg 87%
    04:00 +7°C° 0 mm 4 mps 740 mmHg 88%
    05:00 +7°C° 0 mm 4 mps 740 mmHg 89%
    06:00 +7°C° 0 mm 4 mps 740 mmHg 90%
    07:00 +7°C° 0 mm 4 mps 740 mmHg 91%
    08:00 +7°C° 0 mm 4 mps 740 mmHg 86%
    09:00 +8°C° 0 mm 4 mps 740 mmHg 80%
    10:00 +9°C° 0 mm 5 mps 741 mmHg 75%
    11:00 +10°C° 0 mm 4 mps 740 mmHg 72%
    12:00 +10°C° 0 mm 4 mps 740 mmHg 70%
    13:00 +10°C° 0 mm 4 mps 740 mmHg 68%
    14:00 +10°C° 0.5 mm 3 mps 740 mmHg 74%
    15:00 +9°C° 0.5 mm 2 mps 740 mmHg 80%
    16:00 +8°C° 0.5 mm 2 mps 739 mmHg 86%
    17:00 +8°C° 0.5 mm 2 mps 739 mmHg 88%
    18:00 +9°C° 0.5 mm 1 mps 739 mmHg 90%
    19:00 +9°C° 0.5 mm 1 mps 739 mmHg 92%
    20:00 +7°C° 0.2 mm 2 mps 739 mmHg 90%
    21:00 +7°C° 0.2 mm 2 mps 739 mmHg 88%
    22:00 +7°C° 0.2 mm 2 mps 739 mmHg 86%
    23:00 +7°C° 0.5 mm 2 mps 739 mmHg 86%
    Show more